QPF
0.04 0.07 0.08 0.08 0.09 0.09 0.09 0.10 0.14 0.12 0.09 0.08 0.06 0.06 0.05 0.04 0.04 0.04 0.04 0.04 0.05 0.06 0.05 0.05 0.07 0.09 0.09 0.09 0.08 0.07 0.07 0.07 0.06 0.04 0.04 0.04 0.03 0.03 0.03 0.03 0.02 0.04 0.04
0.03 0.05 0.05 0.06 0.08 0.09 0.09 0.10 0.13 0.13 0.11 0.09 0.07 0.06 0.05 0.05 0.04 0.04 0.04 0.05 0.05 0.05 0.05 0.05 0.05 0.06 0.08 0.07 0.07 0.06 0.07 0.06 0.05 0.05 0.05 0.05 0.04 0.04 0.04 0.04 0.03 0.03 0.04
0.04 0.05 0.04 0.04 0.04 0.05 0.06 0.06 0.07 0.07 0.06 0.06 0.05 0.05 0.05 0.05 0.05 0.05 0.04 0.04 0.04 0.03 0.03 0.04 0.05 0.07 0.07 0.06 0.06 0.06 0.06 0.05 0.05 0.05 0.04 0.04 0.04 0.04 0.04 0.03 0.03 0.03 0.02
0.05 0.05 0.04 0.04 0.04 0.04 0.04 0.03 0.03 0.03 0.03 0.02 0.02 0.02 0.03 0.03 0.03 0.03 0.03 0.02 0.02 0.02 0.02 0.03 0.04 0.06 0.07 0.07 0.06 0.05 0.06 0.05 0.05 0.05 0.03 0.03 0.03 0.03 0.04 0.03 0.02 0.03 0.02
0.05 0.05 0.05 0.05 0.04 0.04 0.04 0.03 0.02 0.01 0.01 0.01 0.01 0.01 0.01 0.01 0.02 0.02 0.02 0.02 0.03 0.03 0.03 0.04 0.04 0.04 0.04 0.03 0.03 0.04 0.04 0.04 0.04 0.04 0.03 0.02 0.03 0.04 0.03 0.02 0.02 0.02 0.02
0.04 0.05 0.05 0.05 0.04 0.04 0.04 0.04 0.03 0.02 0.02 0.02 0.01 0.02 0.03 0.02 0.02 0.01 0.01 0.02 0.03 0.03 0.03 0.03 0.03 0.02 0.02 0.01 0.01 0.01 0.02 0.03 0.04 0.04 0.03 0.03 0.03 0.03 0.03 0.02 0.02 0.03 0.03
0.03 0.03 0.03 0.03 0.04 0.04 0.04 0.05 0.04 0.04 0.03 0.02 0.02 0.02 0.02 0.03 0.03 0.03 0.02 0.01 0.01 0.02 0.02 0.02 0.02 0.02 0.01 0.01 0.01 0.01 0.01 0.01 0.02 0.02 0.02 0.03 0.03 0.03 0.03 0.02 0.03 0.04 0.03
0.02 0.02 0.03 0.03 0.03 0.03 0.03 0.03 0.03 0.03 0.04 0.04 0.03 0.02 0.02 0.03 0.03 0.03 0.03 0.02 0.02 0.02 0.02 0.02 0.02 0.02 0.01 0.01 0.01 0.01 0.02 0.02 0.03 0.02 0.02 0.02 0.02 0.03 0.03 0.03 0.03 0.03 0.03
0.02 0.01 0.02 0.03 0.03 0.03 0.02 0.02 0.02 0.03 0.03 0.03 0.04 0.03 0.03 0.03 0.03 0.04 0.04 0.03 0.04 0.04 0.03 0.03 0.02 0.02 0.02 0.01 0.01 0.01 0.02 0.02 0.02 0.02 0.01 0.01 0.01 0.02 0.02 0.02 0.03 0.04 0.04
0.02 0.02 0.02 0.02 0.03 0.03 0.02 0.02 0.02 0.03 0.03 0.02 0.02 0.03 0.03 0.02 0.02 0.02 0.03 0.02 0.03 0.03 0.03 0.02 0.02 0.01 0.01 0.02 0.01 0.01 0.02 0.02 0.01 0.01 0.01 0.02 0.02 0.02 0.02 0.02 0.03 0.04 0.05
0.02 0.02 0.02 0.01 0.02 0.01 0.01 0.02 0.02 0.02 0.02 0.02 0.02 0.02 0.02 0.02 0.02 0.02 0.02 0.02 0.02 0.02 0.01 0.01 0.01 0.01 0.01 0.00 0.00 0.01 0.01 0.01 0.00 0.01 0.01 0.01 0.01 0.02 0.02 0.02 0.02 0.04 0.04
0.01 0.02 0.01 0.01 0.01 0.01 0.01 0.01 0.02 0.02 0.03 0.03 0.03 0.03 0.03 0.03 0.03 0.02 0.03 0.02 0.02 0.01 0.02 0.02 0.02 0.01 0.01 0.01 0.00 0.01 0.00 0.00 0.00 0.01 0.01 0.02 0.02 0.02 0.02 0.02 0.02 0.02 0.03
0.03 0.02 0.02 0.01 0.01 0.01 0.01 0.01 0.01 0.02 0.03 0.04 0.05 0.05 0.04 0.04 0.04 0.04 0.03 0.02 0.01 0.01 0.01 0.02 0.02 0.02 0.01 0.01 0.01 0.01 0.01 0.00 0.01 0.01 0.02 0.01 0.01 0.02 0.02 0.02 0.02 0.02 0.02
0.03 0.03 0.02 0.02 0.02 0.02 0.01 0.01 0.01 0.02 0.02 0.04 0.05 0.05 0.05 0.04 0.04 0.03 0.02 0.01 0.01 0.01 0.01 0.02 0.02 0.02 0.01 0.01 0.01 0.01 0.01 0.01 0.01 0.01 0.02 0.01 0.01 0.01 0.02 0.02 0.03 0.03 0.03
0.03 0.02 0.02 0.02 0.01 0.01 0.01 0.01 0.01 0.01 0.02 0.03 0.02 0.02 0.02 0.03 0.02 0.02 0.02 0.02 0.02 0.02 0.02 0.02 0.02 0.02 0.02 0.01 0.00 0.00 0.00 0.00 0.00 0.01 0.01 0.01 0.01 0.01 0.02 0.01 0.02 0.03 0.03
0.02 0.02 0.01 0.02 0.01 0.01 0.01 0.01 0.01 0.01 0.01 0.01 0.01 0.00 0.01 0.02 0.02 0.02 0.02 0.02 0.02 0.03 0.03 0.02 0.01 0.01 0.01 0.01 0.00 0.00 0.00 0.00 0.01 0.01 0.01 0.01 0.01 0.01 0.02 0.02 0.02 0.03 0.04
0.02 0.02 0.01 0.01 0.01 0.01 0.01 0.01 0.01 0.01 0.00 0.00 0.00 0.00 0.00 0.01 0.01 0.01 0.01 0.02 0.02 0.03 0.02 0.01 0.01 0.01 0.01 0.01 0.01 0.01 0.01 0.01 0.01 0.01 0.01 0.01 0.01 0.01 0.01 0.02 0.02 0.03 0.04
0.02 0.01 0.01 0.01 0.01 0.01 0.01 0.00 0.01 0.00 0.00 0.00 0.01 0.01 0.01 0.01 0.01 0.02 0.02 0.02 0.01 0.01 0.01 0.01 0.01 0.01 0.01 0.02 0.02 0.01 0.01 0.01 0.01 0.01 0.01 0.01 0.01 0.01 0.01 0.02 0.01 0.02 0.04
0.01 0.01 0.01 0.01 0.01 0.01 0.01 0.00 0.00 0.00 0.00 0.00 0.00 0.01 0.01 0.01 0.01 0.01 0.02 0.01 0.01 0.01 0.01 0.01 0.01 0.01 0.01 0.01 0.01 0.01 0.01 0.01 0.02 0.02 0.01 0.01 0.01 0.01 0.01 0.01 0.02 0.01 0.01
0.02 0.02 0.01 0.01 0.01 0.01 0.00 0.00 0.00 0.00 0.00 0.00 0.00 0.00 0.01 0.01 0.01 0.01 0.01 0.01 0.01 0.01 0.01 0.01 0.01 0.02 0.01 0.01 0.01 0.01 0.01 0.01 0.02 0.02 0.02 0.01 0.01 0.01 0.01 0.01 0.01 0.01 0.01
0.02 0.01 0.01 0.01 0.01 0.00 0.00 0.00 0.00 0.00 0.01 0.00 0.00 0.00 0.00 0.01 0.01 0.01 0.01 0.01 0.02 0.02 0.02 0.02 0.02 0.02 0.02 0.02 0.01 0.01 0.01 0.01 0.01 0.01 0.01 0.01 0.02 0.02 0.01 0.01 0.02 0.02 0.02
0.02 0.01 0.01 0.00 0.01 0.00 0.00 0.00 0.01 0.01 0.01 0.00 0.00 0.00 0.00 0.00 0.00 0.01 0.01 0.01 0.02 0.02 0.02 0.03 0.02 0.02 0.02 0.01 0.01 0.01 0.01 0.01 0.01 0.01 0.01 0.02 0.02 0.02 0.02 0.01 0.01 0.02 0.02
0.01 0.01 0.01 0.01 0.01 0.01 0.00 0.01 0.02 0.02 0.01 0.00 0.00 0.01 0.01 0.00 0.00 0.00 0.00 0.01 0.02 0.02 0.02 0.02 0.02 0.02 0.02 0.01 0.01 0.01 0.01 0.01 0.01 0.02 0.02 0.03 0.03 0.03 0.03 0.03 0.02 0.02 0.02
0.01 0.01 0.01 0.01 0.01 0.01 0.01 0.01 0.02 0.02 0.01 0.01 0.01 0.01 0.01 0.00 0.00 0.01 0.01 0.01 0.01 0.01 0.02 0.03 0.02 0.02 0.02 0.02 0.01 0.01 0.01 0.01 0.01 0.01 0.02 0.02 0.03 0.03 0.03 0.03 0.03 0.03 0.03
0.01 0.01 0.01 0.01 0.01 0.01 0.01 0.01 0.01 0.01 0.01 0.01 0.01 0.01 0.02 0.01 0.01 0.01 0.00 0.01 0.01 0.02 0.02 0.02 0.03 0.02 0.02 0.02 0.02 0.02 0.01 0.01 0.01 0.01 0.01 0.02 0.03 0.03 0.03 0.03 0.03 0.03 0.03
0.02 0.01 0.01 0.01 0.01 0.02 0.02 0.01 0.01 0.01 0.01 0.01 0.01 0.01 0.01 0.01 0.01 0.00 0.00 0.01 0.02 0.02 0.02 0.03 0.04 0.04 0.04 0.04 0.04 0.04 0.03 0.02 0.02 0.02 0.02 0.02 0.02 0.02 0.02 0.02 0.02 0.03 0.03
MSLP
1008.14 1009.08 1009.97 1010.80 1011.55 1012.22 1012.82 1013.35 1013.85 1014.32 1014.77 1015.21 1015.64 1016.05 1016.42 1016.75 1017.02 1017.24 1017.40 1017.51 1017.58 1017.62 1017.64 1017.66 1017.65 1017.63 1017.57 1017.47 1017.30 1017.05 1016.73 1016.32 1015.86 1015.35 1014.82 1014.29 1013.78 1013.30 1012.85 1012.42 1012.00 1011.57 1011.12
1007.48 1008.42 1009.31 1010.14 1010.91 1011.60 1012.24 1012.83 1013.39 1013.93 1014.45 1014.94 1015.41 1015.85 1016.24 1016.57 1016.83 1017.04 1017.18 1017.28 1017.34 1017.37 1017.40 1017.41 1017.41 1017.40 1017.35 1017.25 1017.09 1016.86 1016.56 1016.18 1015.74 1015.25 1014.74 1014.23 1013.73 1013.25 1012.81 1012.38 1011.96 1011.54 1011.09
1006.89 1007.84 1008.72 1009.55 1010.31 1011.03 1011.70 1012.34 1012.96 1013.57 1014.15 1014.71 1015.24 1015.71 1016.12 1016.45 1016.72 1016.91 1017.05 1017.13 1017.18 1017.22 1017.24 1017.25 1017.26 1017.25 1017.20 1017.11 1016.95 1016.73 1016.43 1016.07 1015.64 1015.17 1014.67 1014.17 1013.69 1013.22 1012.79 1012.38 1011.98 1011.58 1011.17
1006.40 1007.34 1008.22 1009.04 1009.80 1010.52 1011.21 1011.89 1012.57 1013.24 1013.89 1014.51 1015.09 1015.60 1016.04 1016.39 1016.66 1016.85 1016.98 1017.06 1017.11 1017.14 1017.17 1017.19 1017.21 1017.20 1017.15 1017.06 1016.91 1016.68 1016.38 1016.01 1015.58 1015.11 1014.62 1014.13 1013.65 1013.20 1012.78 1012.40 1012.04 1011.68 1011.31
1006.01 1006.94 1007.81 1008.61 1009.36 1010.08 1010.79 1011.49 1012.21 1012.93 1013.63 1014.31 1014.93 1015.48 1015.95 1016.32 1016.60 1016.79 1016.93 1017.01 1017.07 1017.11 1017.16 1017.19 1017.22 1017.22 1017.18 1017.09 1016.93 1016.70 1016.39 1016.00 1015.56 1015.08 1014.58 1014.08 1013.61 1013.17 1012.78 1012.42 1012.09 1011.79 1011.48
1005.72 1006.64 1007.49 1008.27 1009.00 1009.71 1010.41 1011.13 1011.86 1012.61 1013.35 1014.06 1014.72 1015.30 1015.78 1016.17 1016.46 1016.67 1016.81 1016.91 1016.99 1017.05 1017.12 1017.18 1017.23 1017.26 1017.24 1017.15 1016.99 1016.75 1016.42 1016.02 1015.56 1015.06 1014.54 1014.04 1013.57 1013.13 1012.75 1012.42 1012.13 1011.87 1011.62
1005.50 1006.41 1007.23 1007.99 1008.69 1009.38 1010.07 1010.78 1011.51 1012.27 1013.02 1013.75 1014.41 1015.00 1015.50 1015.89 1016.19 1016.41 1016.57 1016.69 1016.80 1016.90 1017.00 1017.10 1017.19 1017.24 1017.25 1017.18 1017.02 1016.78 1016.44 1016.02 1015.55 1015.03 1014.50 1013.98 1013.50 1013.07 1012.70 1012.39 1012.12 1011.90 1011.70
1005.33 1006.21 1007.01 1007.74 1008.41 1009.07 1009.74 1010.43 1011.15 1011.88 1012.62 1013.34 1014.00 1014.58 1015.07 1015.46 1015.77 1016.00 1016.17 1016.32 1016.46 1016.60 1016.75 1016.89 1017.02 1017.12 1017.15 1017.10 1016.97 1016.73 1016.40 1015.98 1015.49 1014.97 1014.43 1013.90 1013.42 1012.98 1012.61 1012.31 1012.07 1011.87 1011.71
1005.17 1006.02 1006.79 1007.48 1008.13 1008.76 1009.40 1010.06 1010.75 1011.46 1012.17 1012.86 1013.49 1014.05 1014.52 1014.91 1015.21 1015.45 1015.65 1015.83 1016.00 1016.18 1016.37 1016.56 1016.73 1016.86 1016.93 1016.91 1016.80 1016.58 1016.26 1015.85 1015.37 1014.85 1014.31 1013.79 1013.30 1012.87 1012.50 1012.20 1011.96 1011.78 1011.64
1004.98 1005.79 1006.53 1007.20 1007.83 1008.44 1009.05 1009.69 1010.35 1011.02 1011.69 1012.34 1012.94 1013.47 1013.93 1014.30 1014.61 1014.86 1015.08 1015.28 1015.49 1015.70 1015.92 1016.14 1016.34 1016.50 1016.60 1016.61 1016.52 1016.32 1016.02 1015.64 1015.18 1014.68 1014.16 1013.65 1013.17 1012.74 1012.37 1012.07 1011.84 1011.65 1011.52
1004.74 1005.52 1006.23 1006.88 1007.49 1008.09 1008.69 1009.31 1009.94 1010.59 1011.22 1011.84 1012.41 1012.92 1013.36 1013.73 1014.04 1014.31 1014.54 1014.77 1014.99 1015.23 1015.47 1015.70 1015.92 1016.09 1016.20 1016.23 1016.15 1015.98 1015.71 1015.35 1014.92 1014.45 1013.96 1013.47 1013.01 1012.60 1012.24 1011.94 1011.71 1011.53 1011.39
1004.45 1005.19 1005.88 1006.52 1007.14 1007.73 1008.33 1008.94 1009.56 1010.18 1010.80 1011.40 1011.95 1012.45 1012.89 1013.27 1013.59 1013.87 1014.13 1014.37 1014.60 1014.84 1015.08 1015.31 1015.52 1015.68 1015.78 1015.80 1015.74 1015.58 1015.33 1015.01 1014.62 1014.19 1013.74 1013.29 1012.86 1012.47 1012.13 1011.84 1011.60 1011.42 1011.28
1004.15 1004.85 1005.52 1006.16 1006.77 1007.38 1007.98 1008.59 1009.21 1009.83 1010.44 1011.03 1011.58 1012.09 1012.54 1012.94 1013.29 1013.59 1013.86 1014.12 1014.35 1014.58 1014.80 1015.00 1015.17 1015.30 1015.37 1015.38 1015.31 1015.16 1014.93 1014.64 1014.29 1013.91 1013.51 1013.11 1012.72 1012.36 1012.04 1011.77 1011.54 1011.36 1011.23
1003.90 1004.55 1005.20 1005.83 1006.45 1007.06 1007.67 1008.29 1008.91 1009.53 1010.14 1010.74 1011.31 1011.83 1012.31 1012.74 1013.12 1013.45 1013.74 1014.00 1014.23 1014.43 1014.61 1014.76 1014.88 1014.95 1014.98 1014.96 1014.87 1014.72 1014.52 1014.26 1013.96 1013.63 1013.29 1012.94 1012.60 1012.29 1012.00 1011.75 1011.54 1011.38 1011.25
1003.76 1004.37 1004.98 1005.59 1006.19 1006.80 1007.41 1008.02 1008.64 1009.26 1009.88 1010.49 1011.08 1011.64 1012.15 1012.62 1013.03 1013.39 1013.69 1013.94 1014.15 1014.32 1014.45 1014.54 1014.59 1014.61 1014.59 1014.53 1014.42 1014.28 1014.10 1013.88 1013.64 1013.37 1013.09 1012.80 1012.52 1012.25 1012.01 1011.79 1011.61 1011.46 1011.36
1003.82 1004.36 1004.92 1005.48 1006.05 1006.63 1007.21 1007.80 1008.40 1009.02 1009.64 1010.25 1010.86 1011.44 1011.98 1012.48 1012.92 1013.29 1013.60 1013.84 1014.02 1014.15 1014.22 1014.25 1014.25 1014.21 1014.14 1014.06 1013.95 1013.82 1013.67 1013.50 1013.32 1013.12 1012.91 1012.69 1012.47 1012.26 1012.06 1011.88 1011.73 1011.61 1011.53
1004.09 1004.55 1005.03 1005.53 1006.03 1006.55 1007.08 1007.62 1008.19 1008.77 1009.37 1009.98 1010.59 1011.18 1011.73 1012.24 1012.69 1013.07 1013.37 1013.59 1013.74 1013.82 1013.85 1013.83 1013.77 1013.70 1013.61 1013.52 1013.42 1013.32 1013.22 1013.12 1013.01 1012.89 1012.75 1012.61 1012.45 1012.30 1012.14 1012.01 1011.89 1011.79 1011.73
1004.56 1004.92 1005.31 1005.70 1006.12 1006.55 1007.00 1007.47 1007.98 1008.51 1009.07 1009.65 1010.24 1010.81 1011.35 1011.85 1012.29 1012.65 1012.93 1013.13 1013.24 1013.28 1013.27 1013.22 1013.14 1013.05 1012.96 1012.89 1012.84 1012.79 1012.76 1012.74 1012.71 1012.67 1012.61 1012.54 1012.45 1012.35 1012.24 1012.13 1012.04 1011.97 1011.92
1005.17 1005.41 1005.68 1005.97 1006.27 1006.59 1006.95 1007.33 1007.76 1008.22 1008.73 1009.25 1009.79 1010.33 1010.84 1011.30 1011.70 1012.03 1012.28 1012.43 1012.51 1012.53 1012.49 1012.42 1012.35 1012.28 1012.22 1012.20 1012.21 1012.24 1012.30 1012.36 1012.42 1012.46 1012.49 1012.48 1012.45 1012.39 1012.32 1012.24 1012.16 1012.10 1012.07
1005.81 1005.93 1006.08 1006.24 1006.42 1006.64 1006.89 1007.18 1007.52 1007.91 1008.34 1008.80 1009.28 1009.75 1010.20 1010.61 1010.96 1011.24 1011.43 1011.55 1011.60 1011.60 1011.56 1011.50 1011.45 1011.43 1011.44 1011.49 1011.58 1011.71 1011.85 1012.01 1012.16 1012.28 1012.37 1012.42 1012.43 1012.41 1012.36 1012.30 1012.23 1012.17 1012.13
1006.37 1006.38 1006.41 1006.45 1006.53 1006.64 1006.79 1007.00 1007.26 1007.57 1007.92 1008.31 1008.72 1009.12 1009.50 1009.84 1010.12 1010.33 1010.48 1010.56 1010.59 1010.58 1010.56 1010.54 1010.54 1010.58 1010.67 1010.82 1011.01 1011.23 1011.47 1011.71 1011.93 1012.12 1012.27 1012.36 1012.40 1012.40 1012.36 1012.30 1012.23 1012.16 1012.11
1006.78 1006.68 1006.60 1006.55 1006.53 1006.56 1006.64 1006.78 1006.97 1007.21 1007.50 1007.81 1008.14 1008.47 1008.77 1009.03 1009.24 1009.39 1009.49 1009.54 1009.56 1009.57 1009.58 1009.61 1009.69 1009.82 1010.00 1010.25 1010.53 1010.85 1011.17 1011.48 1011.76 1012.00 1012.17 1012.29 1012.34 1012.34 1012.30 1012.23 1012.15 1012.06 1011.99
1006.99 1006.80 1006.64 1006.51 1006.43 1006.40 1006.43 1006.51 1006.65 1006.84 1007.07 1007.32 1007.58 1007.83 1008.05 1008.24 1008.38 1008.49 1008.55 1008.58 1008.61 1008.64 1008.70 1008.81 1008.97 1009.19 1009.47 1009.81 1010.18 1010.58 1010.97 1011.33 1011.65 1011.91 1012.10 1012.21 1012.26 1012.25 1012.20 1012.11 1012.01 1011.90 1011.81
1007.04 1006.78 1006.55 1006.37 1006.25 1006.18 1006.17 1006.22 1006.33 1006.48 1006.66 1006.85 1007.05 1007.22 1007.38 1007.50 1007.59 1007.64 1007.68 1007.71 1007.76 1007.83 1007.96 1008.14 1008.39 1008.71 1009.09 1009.51 1009.96 1010.42 1010.85 1011.25 1011.58 1011.84 1012.03 1012.13 1012.16 1012.13 1012.06 1011.95 1011.83 1011.71 1011.59
1006.98 1006.67 1006.40 1006.19 1006.03 1005.94 1005.91 1005.94 1006.02 1006.13 1006.26 1006.40 1006.54 1006.65 1006.74 1006.81 1006.85 1006.87 1006.90 1006.94 1007.02 1007.15 1007.34 1007.61 1007.94 1008.35 1008.81 1009.31 1009.82 1010.32 1010.78 1011.19 1011.52 1011.78 1011.94 1012.03 1012.04 1011.99 1011.90 1011.78 1011.64 1011.50 1011.38
1006.92 1006.57 1006.27 1006.02 1005.85 1005.73 1005.68 1005.69 1005.73 1005.81 1005.89 1005.98 1006.06 1006.11 1006.15 1006.16 1006.16 1006.17 1006.19 1006.25 1006.37 1006.56 1006.82 1007.16 1007.58 1008.06 1008.59 1009.15 1009.70 1010.23 1010.71 1011.12 1011.45 1011.69 1011.83 1011.90 1011.89 1011.83 1011.73 1011.60 1011.46 1011.32 1011.18
Thickness
5715 5713 5712 5710 5709 5708 5707 5706 5704 5703 5702 5701 5699 5698 5697 5696 5695 5694 5693 5691 5689 5688 5688 5687 5685 5684 5683 5684 5684 5683 5682 5681 5678 5679 5681 5680 5677 5676 5675 5674 5674 5673 5672
5713 5711 5708 5707 5706 5705 5704 5702 5701 5700 5700 5699 5698 5696 5695 5694 5693 5691 5690 5689 5687 5686 5685 5685 5683 5682 5680 5680 5679 5679 5678 5677 5675 5672 5673 5674 5672 5671 5670 5669 5670 5670 5669
5710 5708 5705 5704 5703 5701 5700 5699 5698 5697 5696 5696 5695 5694 5692 5691 5689 5688 5687 5686 5685 5684 5683 5682 5681 5679 5677 5677 5675 5675 5674 5674 5672 5670 5670 5669 5668 5667 5665 5666 5666 5664 5664
5707 5704 5702 5700 5699 5698 5697 5696 5695 5694 5693 5692 5691 5691 5689 5688 5687 5686 5685 5683 5682 5681 5680 5679 5678 5677 5675 5673 5672 5671 5671 5669 5668 5666 5665 5665 5663 5662 5661 5661 5660 5660 5659
5702 5700 5698 5697 5696 5695 5694 5693 5692 5691 5691 5689 5688 5687 5686 5684 5683 5682 5681 5680 5679 5677 5676 5675 5673 5671 5669 5669 5670 5668 5667 5665 5664 5663 5661 5660 5658 5656 5655 5656 5656 5655 5654
5698 5696 5694 5693 5692 5690 5689 5688 5687 5687 5686 5685 5684 5683 5682 5680 5675 5674 5675 5676 5675 5673 5672 5671 5670 5667 5664 5661 5660 5660 5659 5659 5659 5657 5657 5653 5651 5652 5650 5650 5649 5648 5647
5692 5691 5690 5689 5687 5686 5686 5684 5683 5682 5681 5680 5679 5678 5676 5672 5669 5668 5667 5670 5670 5669 5668 5666 5667 5665 5662 5661 5657 5654 5653 5651 5649 5651 5650 5648 5647 5647 5645 5644 5642 5641 5640
5688 5686 5686 5685 5683 5682 5681 5679 5678 5677 5676 5675 5674 5673 5671 5668 5664 5663 5662 5665 5665 5664 5663 5662 5660 5658 5658 5655 5655 5653 5651 5648 5645 5644 5644 5642 5641 5639 5638 5637 5637 5636 5635
5683 5682 5681 5680 5679 5677 5675 5674 5673 5672 5671 5670 5670 5668 5666 5663 5659 5658 5657 5661 5661 5659 5659 5658 5655 5653 5648 5646 5647 5647 5646 5644 5640 5637 5636 5634 5632 5631 5630 5631 5631 5631 5631
5678 5678 5676 5675 5673 5672 5670 5669 5668 5667 5666 5667 5665 5664 5662 5660 5656 5653 5652 5658 5656 5655 5653 5652 5647 5645 5641 5638 5641 5641 5639 5638 5637 5635 5631 5629 5628 5627 5624 5623 5625 5626 5626
5674 5673 5671 5670 5668 5667 5665 5663 5662 5662 5661 5660 5660 5659 5658 5656 5652 5649 5647 5650 5651 5651 5651 5648 5645 5637 5635 5632 5632 5634 5632 5630 5631 5631 5630 5629 5627 5625 5623 5621 5620 5620 5619
5668 5667 5665 5664 5663 5662 5659 5657 5656 5656 5655 5655 5654 5653 5653 5651 5648 5645 5642 5640 5641 5643 5644 5643 5639 5632 5628 5626 5626 5626 5624 5623 5628 5628 5627 5626 5624 5622 5620 5618 5615 5613 5611
5659 5658 5658 5657 5656 5655 5654 5652 5652 5651 5653 5653 5652 5651 5650 5649 5645 5640 5637 5635 5634 5636 5637 5632 5629 5626 5623 5623 5621 5620 5619 5622 5623 5622 5622 5621 5620 5618 5615 5612 5610 5608 5605
5651 5650 5650 5650 5649 5649 5648 5650 5649 5649 5648 5648 5647 5646 5645 5644 5642 5638 5636 5633 5629 5630 5630 5627 5623 5621 5620 5619 5618 5617 5617 5618 5618 5617 5617 5617 5616 5613 5611 5609 5607 5605 5604
5644 5643 5644 5644 5645 5643 5643 5642 5643 5641 5640 5638 5639 5639 5637 5636 5632 5627 5627 5629 5628 5626 5623 5623 5623 5622 5620 5619 5618 5617 5615 5614 5613 5613 5612 5612 5610 5609 5607 5605 5602 5601 5599
5636 5636 5638 5639 5639 5639 5638 5636 5631 5631 5628 5626 5625 5625 5628 5624 5620 5619 5618 5617 5617 5615 5616 5620 5620 5619 5618 5617 5615 5613 5611 5610 5609 5608 5607 5606 5605 5603 5601 5599 5597 5595 5593
5630 5630 5631 5633 5633 5633 5633 5632 5629 5625 5620 5619 5618 5617 5616 5614 5613 5612 5610 5609 5609 5607 5612 5615 5615 5614 5613 5611 5610 5609 5607 5605 5603 5602 5601 5600 5599 5598 5596 5593 5591 5589 5587
5624 5623 5624 5626 5627 5628 5627 5627 5626 5624 5622 5620 5615 5611 5609 5608 5606 5605 5604 5603 5606 5605 5609 5610 5609 5608 5607 5606 5604 5603 5602 5600 5598 5597 5596 5594 5593 5591 5590 5588 5586 5583 5582
5619 5619 5619 5620 5621 5622 5622 5622 5621 5619 5618 5617 5615 5610 5604 5603 5601 5599 5598 5602 5606 5606 5606 5605 5603 5602 5601 5600 5598 5597 5596 5595 5593 5592 5590 5588 5587 5585 5583 5582 5581 5576 5573
5612 5610 5611 5614 5616 5616 5616 5615 5614 5614 5613 5612 5611 5609 5605 5603 5603 5601 5599 5601 5602 5602 5601 5600 5598 5596 5595 5594 5593 5592 5591 5590 5588 5586 5585 5583 5582 5580 5578 5575 5575 5573 5571
5610 5608 5603 5608 5610 5610 5610 5609 5609 5609 5608 5607 5606 5605 5600 5602 5603 5602 5601 5600 5599 5598 5597 5596 5594 5592 5591 5589 5588 5587 5585 5584 5582 5581 5579 5578 5576 5574 5572 5570 5569 5567 5565
5606 5606 5604 5605 5605 5604 5604 5604 5604 5603 5603 5602 5602 5601 5595 5597 5599 5600 5598 5597 5596 5594 5593 5591 5590 5589 5586 5585 5583 5582 5580 5578 5576 5575 5574 5572 5570 5568 5566 5564 5562 5560 5557
5600 5601 5600 5600 5599 5596 5597 5599 5599 5598 5598 5598 5597 5596 5595 5594 5594 5594 5594 5592 5590 5589 5587 5586 5584 5583 5581 5579 5577 5576 5574 5573 5571 5569 5567 5565 5564 5562 5560 5557 5554 5552 5550
5596 5596 5595 5594 5594 5593 5593 5593 5593 5593 5593 5592 5592 5591 5590 5589 5588 5588 5587 5586 5584 5582 5581 5580 5578 5576 5574 5572 5571 5570 5567 5564 5562 5562 5560 5558 5557 5555 5554 5551 5549 5547 5544
5591 5591 5590 5590 5589 5588 5588 5588 5588 5587 5587 5586 5586 5585 5584 5583 5582 5581 5580 5579 5577 5576 5574 5573 5571 5569 5567 5565 5563 5560 5556 5554 5553 5551 5551 5551 5550 5548 5546 5545 5543 5541 5538
5586 5585 5585 5585 5584 5583 5582 5582 5582 5582 5581 5580 5580 5579 5577 5577 5576 5574 5573 5571 5570 5569 5567 5565 5564 5562 5559 5557 5554 5551 5548 5547 5545 5543 5543 5544 5544 5542 5541 5540 5538 5536 5534